Regional Weather Roundup
Issued by NWS Cleveland, OH

Home | Current Version | Previous Version | Graphics & Text | Print | Product List | Glossary On
Versions: 1 2 3 4 5 6 7 8 9 10 11 12 13 14 15 16 17 18 19 20 21 22 23 24 25 26 27 28 29 30 31 32 33 34 35 36 37 38 39 40 41 42 43 44 45 46 47 48 49 50
000
ASUS41 KCLE 222110
RWRCLE
OHIO REGIONAL WEATHER ROUNDUP
NATIONAL WEATHER SERVICE CLEVELAND, OH
400 PM EST WED FEB 22 2017

NOTE: "FAIR" INDICATES FEW OR NO CLOUDS BELOW 12,000 FEET WITH NO
SIGNIFICANT WEATHER AND/OR OBSTRUCTIONS TO VISIBILITY.

OHZ001>008-015>018-024>027-034-035-043-044-222200-
   NORTHWEST OHIO

CITY           SKY/WX    TMP DP  RH WIND       PRES   REMARKS
DEFIANCE       CLOUDY    62  53  72 S7        29.76F
FINDLAY        CLOUDY    62  53  72 S12       29.77F
TOLEDO EXPRESS CLOUDY    61  55  81 S12       29.77S
TOLEDO EXEC    CLOUDY    62  55  77 S12       29.78F
LIMA           CLOUDY    61  56  83 S12       29.78F
$$

OHZ009>014-019>023-028>033-038-089-222200-
   NORTHEAST OHIO

CITY           SKY/WX    TMP DP  RH WIND       PRES   REMARKS
CLE-HOPKINS    CLOUDY    62  52  69 SW10      29.83F
CLE-LAKEFRONT  CLOUDY    62  52  69 SW12      29.80F
CUY CO. ARPT   CLOUDY    63  55  77 S12       29.82F
LORAIN-ELYRIA  CLOUDY    62  52  69 SW9       29.81S
ASHTABULA      CLOUDY    58  55  90 SW8       29.83F
AKRON-CANTON   CLOUDY    59  53  80 SW13      29.83F
WOOSTER        CLOUDY    58  53  84 SW12      29.83S
MANSFIELD      CLOUDY    58  54  86 S10       29.82S
YOUNGSTOWN     CLOUDY    58  54  86 SW6       29.85F
$$

OHZ042-051>053-060>062-070>072-077>081-222200-
  SOUTHWEST OHIO

CITY           SKY/WX    TMP DP  RH WIND       PRES   REMARKS
CINC-COVINGTON CLOUDY    64  57  78 S7        29.81F
CINC-LUNKEN    CLOUDY    64  59  83 VRB3      29.81F
HAMILTON       CLOUDY    65  57  75 S7        29.81F
DAYTON         CLOUDY    60  56  86 S12       29.81F FOG
WRIGHT-PAT AFB CLOUDY    61  61  98 S10       29.80F
DAYTON GENERAL CLOUDY    61  57  87 S9        29.80F
WILMINGTON     CLOUDY    59  56  89 S9        29.82F
$$

OHZ036-037-039>041-045>050-054>059-063>069-073>076-082>088-222200-
  CENTRAL AND SOUTHEAST OHIO

CITY           SKY/WX    TMP DP  RH WIND       PRES   REMARKS
COLUMBUS       CLOUDY    60  55  83 S12       29.83F
OSU AIRPORT    CLOUDY    58  57  97 S9        29.82F
BOLTON FIELD   CLOUDY    57  55  94 S7        29.84F FOG
RICKENBACK AFB CLOUDY    58  56  91 S10       29.83F
NEWARK         CLOUDY    60  53  77 SW9       29.83S
MARION         CLOUDY    59  54  83 S12       29.81F
LANCASTER      CLOUDY    60  54  80 S8        29.85F
ZANESVILLE     CLOUDY    59  52  77 S9        29.85F
NEW PHILLY     NOT AVBL
$$




USA.gov is the U.S. government's official web portal to all federal, state and local government web resources and services.